Radford, VA

4:55 PM EST on February 21, 2017 (GMT -0500)
New River Valley

Weather History for KPSK - December, 2013

Change the Weather History Date:

Saturday, December 14, 2013

  Actual Average (KBCB) Record (KBCB)
Temperature  
Mean Temperature 34 °F -  
Max Temperature 35 °F 47 °F 70 °F (1984)
Min Temperature 32 °F 24 °F -4 °F (1962)
Degree Days  
Heating Degree Days 32    
Moisture  
Dew Point 31 °F    
Average Humidity 91    
Maximum Humidity 100    
Minimum Humidity 60    
Precipitation  
Precipitation 0.10 in - - ()
Sea Level Pressure  
Sea Level Pressure 30.05 in    
Wind  
Wind Speed 2 mph (ENE)    
Max Wind Speed 8 mph    
Max Gust Speed -    
Visibility 6 miles    
Events Snow    
Averages and records for this station are not official NWS values.
T = Trace of Precipitation, MM = Missing Value Source: NWS Daily Summary

Daily Weather History Graph

Daily Weather History Graph

Search for Another Location

Airport or City:

Trip Planner

Search our weather history database for the weather conditions in past years. The results will help you decide how hot, cold, wet, or windy it might be!

Date:

Astronomy

Dec. 14, 2013 Rise Set
Actual Time 7:28 AM EST 5:06 PM EST
Civil Twilight 6:59 AM EST 5:35 PM EST
Nautical Twilight 6:26 AM EST 6:08 PM EST
Astronomical Twilight 5:55 AM EST 6:39 PM EST
Moon 3:25 PM EST (12/14) 4:50 AM EST (12/14)
Length of Visible Light 10h 36m
Length of Day
9h 37m
Waxing Gibbous, 93% of the Moon is Illuminated
Dec 14
Waxing Gibbous
Dec 17
Full
Dec 25
Last Quarter
Jan 1
New
Jan 7
First Quarter

Hourly Weather History & Observations

Time (EST) Temp. Windchill Dew Point Humidity Pressure Visibility Wind Dir Wind Speed Gust Speed Precip Events Conditions
12:15 AM 33.8 °F - 23.0 °F 65% 30.26 in 10.0 mi Calm Calm - N/A   Overcast
12:35 AM 33.8 °F 30.8 °F 21.2 °F 60% 30.28 in 10.0 mi West 3.5 mph - N/A   Overcast
12:55 AM 33.8 °F 30.8 °F 28.4 °F 81% 30.27 in 5.0 mi WNW 3.5 mph - N/A Snow Light Snow
1:15 AM 33.8 °F 28.6 °F 28.4 °F 81% 30.23 in 10.0 mi NE 5.8 mph - N/A   Scattered Clouds
1:35 AM 33.8 °F - 26.6 °F 75% 30.24 in 10.0 mi Calm Calm - N/A   Mostly Cloudy
1:55 AM 33.8 °F - 26.6 °F 75% 30.24 in 10.0 mi Calm Calm - N/A   Mostly Cloudy
2:15 AM 33.8 °F - 24.8 °F 70% 30.24 in 10.0 mi Calm Calm - N/A   Scattered Clouds
2:35 AM 33.8 °F 28.6 °F 24.8 °F 70% 30.22 in 10.0 mi East 5.8 mph - N/A   Scattered Clouds
2:55 AM 33.8 °F - 26.6 °F 75% 30.23 in 10.0 mi Calm Calm - N/A   Scattered Clouds
3:15 AM 33.8 °F 30.8 °F 26.6 °F 75% 30.21 in 10.0 mi NNE 3.5 mph - N/A   Clear
3:35 AM 32.0 °F - 26.6 °F 80% 30.22 in 10.0 mi Calm Calm - N/A   Scattered Clouds
3:55 AM 32.0 °F - 26.6 °F 80% 30.22 in 10.0 mi Calm Calm - N/A   Scattered Clouds
4:15 AM 32.0 °F 28.7 °F 26.6 °F 80% 30.20 in 10.0 mi NE 3.5 mph - N/A   Clear
4:35 AM 32.0 °F - 26.6 °F 80% 30.20 in 10.0 mi Calm Calm - N/A   Scattered Clouds
4:55 AM 32.0 °F - 26.6 °F 80% 30.19 in 10.0 mi Calm Calm - N/A   Scattered Clouds
5:15 AM 32.0 °F - 26.6 °F 80% 30.19 in 10.0 mi Calm Calm - N/A   Mostly Cloudy
5:35 AM 32.0 °F 26.4 °F 28.4 °F 87% 30.16 in 10.0 mi NE 5.8 mph - N/A   Mostly Cloudy
5:55 AM 32.0 °F - 28.4 °F 87% 30.18 in 10.0 mi Calm Calm - N/A   Scattered Clouds
6:15 AM 32.0 °F - 28.4 °F 87% 30.18 in 10.0 mi Calm Calm - N/A   Scattered Clouds
6:35 AM 32.0 °F 28.7 °F 28.4 °F 87% 30.16 in 10.0 mi NE 3.5 mph - N/A   Scattered Clouds
6:55 AM 32.0 °F - 28.4 °F 87% 30.17 in 10.0 mi Calm Calm - N/A   Scattered Clouds
7:15 AM 32.0 °F - 28.4 °F 87% 30.18 in 10.0 mi Calm Calm - N/A   Scattered Clouds
7:35 AM 33.8 °F - 28.4 °F 81% 30.19 in 10.0 mi Calm Calm - N/A   Mostly Cloudy
7:55 AM 33.8 °F - 28.4 °F 81% 30.19 in 10.0 mi Calm Calm - N/A   Overcast
8:15 AM 33.8 °F 29.6 °F 30.2 °F 87% 30.18 in 10.0 mi ENE 4.6 mph - N/A   Overcast
8:35 AM 33.8 °F 30.8 °F 30.2 °F 87% 30.20 in 10.0 mi East 3.5 mph - N/A   Overcast
8:55 AM 35.6 °F - 30.2 °F 81% 30.20 in 10.0 mi Calm Calm - N/A   Overcast
9:15 AM 35.6 °F - 30.2 °F 81% 30.19 in 10.0 mi Calm Calm - N/A   Overcast
9:35 AM 35.6 °F 31.7 °F 30.2 °F 81% 30.17 in 10.0 mi East 4.6 mph - N/A   Overcast
9:55 AM 35.6 °F 31.7 °F 30.2 °F 81% 30.16 in 5.0 mi East 4.6 mph - N/A Snow Light Snow
10:15 AM 35.6 °F 29.9 °F 30.2 °F 81% 30.16 in 10.0 mi East 6.9 mph - N/A Snow Light Snow
10:35 AM 35.6 °F 31.7 °F 30.2 °F 81% 30.16 in 7.0 mi ESE 4.6 mph - N/A Snow Light Snow
10:55 AM 33.8 °F 28.6 °F 30.2 °F 87% 30.15 in 4.0 mi East 5.8 mph - 0.01 in Snow Light Snow
11:15 AM 33.8 °F 27.7 °F 32.0 °F 93% 30.12 in 5.0 mi East 6.9 mph - 0.01 in Snow Light Snow
11:35 AM 33.8 °F 29.6 °F 32.0 °F 93% 30.10 in 5.0 mi East 4.6 mph - 0.01 in   Overcast
11:55 AM 33.8 °F 28.6 °F 33.8 °F 100% 30.08 in 5.0 mi ENE 5.8 mph - N/A   Overcast
12:15 PM 33.8 °F 27.7 °F 33.8 °F 100% 30.06 in 4.0 mi East 6.9 mph - N/A   Overcast
12:35 PM 33.8 °F 29.6 °F 33.8 °F 100% 30.04 in 4.0 mi East 4.6 mph - N/A   Overcast
12:55 PM 33.8 °F 29.6 °F 33.8 °F 100% 30.04 in 3.0 mi ENE 4.6 mph - 0.01 in   Overcast
1:15 PM 33.8 °F 28.6 °F 33.8 °F 100% 30.01 in 2.5 mi NE 5.8 mph - 0.02 in   Overcast
1:35 PM 33.8 °F 30.8 °F 33.8 °F 100% 30.01 in 2.5 mi ENE 3.5 mph - 0.02 in   Overcast
1:55 PM 33.8 °F 28.6 °F 33.8 °F 100% 30.00 in 2.0 mi NE 5.8 mph - 0.03 in   Overcast
2:15 PM 33.8 °F 27.0 °F 33.8 °F 100% 29.96 in 1.5 mi East 8.1 mph - 0.03 in Snow Light Snow
2:35 PM 33.8 °F 27.0 °F 33.8 °F 100% 29.94 in 3.0 mi East 8.1 mph - N/A   Overcast
2:55 PM 33.8 °F 27.0 °F 33.8 °F 100% 29.93 in 5.0 mi ENE 8.1 mph - N/A   Overcast
3:15 PM 33.8 °F 30.8 °F 33.8 °F 100% 29.94 in 4.0 mi East 3.5 mph - N/A   Overcast
3:35 PM 33.8 °F 29.6 °F 33.8 °F 100% 29.94 in 2.0 mi East 4.6 mph - 0.01 in   Overcast
3:55 PM 33.8 °F 29.6 °F 33.8 °F 100% 29.94 in 2.5 mi East 4.6 mph - N/A   Overcast
4:15 PM 33.8 °F 28.6 °F 33.8 °F 100% 29.94 in 2.5 mi NE 5.8 mph - N/A   Overcast
4:35 PM 33.8 °F 27.7 °F 33.8 °F 100% 29.94 in 2.5 mi ENE 6.9 mph - N/A   Overcast
4:55 PM 33.8 °F 28.6 °F 33.8 °F 100% 29.92 in 1.8 mi ENE 5.8 mph - N/A   Overcast
5:15 PM 33.8 °F 30.8 °F 33.8 °F 100% 29.91 in 2.5 mi East 3.5 mph - N/A   Overcast
5:35 PM 33.8 °F 30.8 °F 33.8 °F 100% 29.90 in 1.5 mi East 3.5 mph - N/A   Overcast
5:55 PM 33.8 °F 30.8 °F 33.8 °F 100% 29.89 in 1.5 mi ENE 3.5 mph - N/A   Overcast
6:15 PM 33.8 °F - 33.8 °F 100% 29.89 in 1.5 mi Calm Calm - N/A   Overcast
6:35 PM 33.8 °F 30.8 °F 33.8 °F 100% 29.88 in 1.8 mi East 3.5 mph - N/A   Overcast
6:55 PM 33.8 °F 30.8 °F 33.8 °F 100% 29.89 in 1.5 mi East 3.5 mph - N/A   Overcast
7:15 PM 33.8 °F - 33.8 °F 100% 29.89 in 1.5 mi Calm Calm - N/A   Overcast
7:35 PM 33.8 °F - 33.8 °F 100% 29.88 in - Calm Calm - N/A   Overcast
7:55 PM 33.8 °F - 33.8 °F 100% 29.87 in - Calm Calm - N/A   Overcast
8:15 PM 33.8 °F - 33.8 °F 100% 29.86 in 1.2 mi Calm Calm - N/A   Overcast
8:35 PM 32.0 °F - 32.0 °F 100% 29.84 in 1.2 mi Calm Calm - N/A   Overcast
8:55 PM 33.8 °F - 33.8 °F 100% 29.82 in - Calm Calm - N/A   Overcast
9:15 PM 33.8 °F - 33.8 °F 100% 29.83 in - Calm Calm - N/A   Overcast
9:35 PM 33.8 °F - 33.8 °F 100% 29.83 in - Calm Calm - N/A   Overcast
9:55 PM 33.8 °F - 33.8 °F 100% 29.81 in - Calm Calm - N/A   Overcast
10:15 PM 33.8 °F - 33.8 °F 100% 29.80 in - Calm Calm - N/A   Overcast
10:35 PM 33.8 °F - 33.8 °F 100% 29.81 in - Calm Calm - N/A   Overcast
10:55 PM 33.8 °F - 33.8 °F 100% 29.80 in - Calm Calm - N/A   Overcast
11:15 PM 33.8 °F - 33.8 °F 100% 29.80 in 1.2 mi Calm Calm - N/A   Overcast
11:35 PM 33.8 °F - 33.8 °F 100% 29.76 in - Calm Calm - N/A   Overcast
11:55 PM 33.8 °F - 33.8 °F 100% 29.76 in 2.0 mi Calm Calm - N/A   Overcast